Theta_e
321 322 326 336 340 340 343 355 359 352 346 349 349 347 349 351 352 356 355 349 352 347 347 347 347 349 341 344 342 340 338 337
319 320 323 331 337 340 342 349 355 361 346 346 348 344 349 348 350 359 358 351 357 356 346 348 353 343 345 342 341 345 342 340
320 322 324 329 334 340 341 348 357 359 364 349 350 348 348 348 350 355 354 352 358 354 354 347 348 345 344 345 342 344 342 342
318 320 322 330 334 340 344 345 358 359 359 365 357 356 353 351 350 354 357 355 358 350 352 347 346 344 343 344 345 343 342 341
317 319 323 326 334 340 348 349 351 359 361 360 356 353 350 351 351 362 360 360 360 357 348 347 346 349 358 352 349 345 341 341
318 318 321 325 326 330 344 342 348 354 354 356 351 351 352 350 349 351 357 360 359 358 347 346 346 348 344 344 344 341 340 341
318 319 320 322 327 330 337 348 346 353 355 354 355 357 350 349 348 348 355 356 356 355 349 347 356 346 344 345 342 345 343 344
316 318 319 323 327 331 333 340 354 352 354 355 349 349 347 349 347 346 351 353 353 355 348 350 350 343 343 342 349 346 344 346
315 316 317 320 326 328 331 332 343 348 349 345 345 344 346 346 346 346 350 350 348 351 346 349 348 345 342 352 347 344 344 350
312 314 317 318 320 331 330 329 334 339 349 345 345 343 344 345 347 348 348 348 351 351 347 349 349 342 350 348 348 343 345 349
311 312 316 318 320 320 323 328 330 336 343 347 351 350 350 345 342 341 346 347 350 350 349 347 350 347 345 347 347 352 339 348
311 313 315 317 317 319 321 326 329 332 335 339 346 349 348 348 347 347 348 346 349 347 349 346 347 347 348 349 352 352 354 345
311 312 314 315 316 320 322 325 328 330 332 341 334 338 339 348 352 358 359 353 350 347 344 345 347 351 353 355 358 361 352 349
311 312 313 315 317 317 320 323 325 328 329 331 336 337 339 336 340 346 352 349 352 350 350 353 355 353 355 360 356 360 357 355
311 311 312 314 315 316 318 320 324 325 326 328 331 337 337 342 342 336 344 348 352 358 358 357 355 359 361 360 360 362 360 354
311 312 312 313 314 316 317 319 321 324 326 327 329 334 328 330 336 336 334 336 344 364 363 358 359 361 362 357 358 358 360 356
310 312 313 313 315 316 318 319 321 323 325 328 330 330 334 333 341 344 338 346 341 348 360 360 359 359 362 363 357 360 358 357
310 311 312 314 316 316 318 321 321 323 324 325 326 329 329 333 338 340 342 346 352 349 352 356 358 359 362 363 358 357 354 352
310 310 312 314 315 315 317 317 319 320 321 323 327 328 329 331 334 336 340 345 348 348 349 349 351 354 360 360 357 354 352 355
310 311 312 313 313 314 315 316 316 318 320 321 322 327 330 333 333 334 339 342 347 348 347 345 347 352 356 356 353 349 352 352
Wind_Speed
12 13 6 2 10 12 15 16 13 16 14 12 9 9 9 9 14 11 11 9 8 8 6 8 8 11 8 11 10 9 12 10
14 15 5 6 11 13 12 18 13 12 11 12 12 11 10 10 12 13 8 8 7 6 7 9 8 8 9 9 8 9 11 11
15 14 6 5 5 7 13 9 12 10 10 10 10 11 11 12 12 13 11 10 7 8 7 8 7 8 8 7 8 7 9 11
11 11 14 4 5 6 7 14 10 8 11 8 8 8 10 11 10 11 15 10 8 9 9 9 9 8 8 7 8 8 8 10
8 6 5 3 1 4 6 8 11 12 12 11 8 8 10 10 9 9 13 11 9 9 9 8 8 7 6 6 6 6 8 9
9 3 3 1 3 3 4 5 11 14 12 11 7 8 9 9 10 10 12 14 13 11 10 8 8 6 7 7 7 8 9 9
10 7 6 2 4 4 3 5 12 15 13 11 10 9 10 9 10 8 14 13 14 11 9 8 8 8 8 6 8 8 8 9
11 6 4 6 4 6 8 3 4 3 10 8 9 10 9 8 10 10 12 12 14 12 10 9 8 8 8 9 7 7 9 11
11 6 2 3 5 4 7 4 4 4 4 7 10 9 6 8 10 10 13 14 15 14 10 10 9 9 12 11 10 11 8 9
10 10 6 1 2 5 4 2 3 3 9 6 4 7 7 9 8 9 12 13 11 11 11 9 10 10 13 10 10 8 9 8
8 9 7 5 4 2 1 1 1 5 5 3 7 5 2 4 8 10 11 11 11 12 9 7 9 10 11 11 10 12 8 9
9 10 10 6 4 2 2 2 3 6 2 7 6 9 8 10 13 11 11 15 16 14 12 9 10 9 13 11 11 12 10 11
5 5 3 3 3 1 2 3 4 3 4 5 6 10 10 11 11 11 10 11 17 16 16 18 16 12 13 14 11 13 10 11
4 1 3 4 3 4 2 3 4 5 5 6 8 10 9 10 10 8 11 11 10 16 18 13 12 12 17 11 13 12 12 10
7 5 5 5 6 7 5 6 5 5 7 8 8 10 9 11 12 10 12 9 11 12 11 12 13 17 14 13 13 13 13 11
5 6 6 8 8 9 8 9 9 9 8 9 9 10 9 10 11 10 10 11 11 7 16 16 16 15 16 14 11 11 12 11
7 9 8 8 8 8 11 11 10 11 11 8 9 10 11 11 12 11 10 10 11 12 9 14 15 16 14 14 11 12 12 10
11 13 13 11 10 11 11 11 13 13 12 12 11 11 11 11 11 12 12 12 11 12 11 11 13 14 15 13 12 12 11 10
14 14 11 12 13 13 13 14 14 13 13 12 12 12 12 12 11 12 12 13 14 15 14 14 16 15 14 13 13 13 14 12
14 13 13 14 14 16 16 15 16 14 14 15 13 12 13 12 12 12 13 14 13 14 14 15 14 14 14 15 15 14 15 14
Wind_Direction
305 313 339 318 234 190 190 163 183 194 199 167 184 192 192 197 207 200 202 204 209 202 180 185 207 203 214 199 204 226 235 250
302 303 348 255 263 216 214 161 184 204 200 181 180 192 184 195 199 198 200 220 207 219 218 203 192 201 213 233 209 217 222 243
287 277 271 224 220 248 205 212 178 210 245 188 196 192 185 196 189 194 212 205 207 207 231 232 216 214 204 222 234 233 221 237
286 290 271 156 241 216 220 190 186 200 232 240 192 189 186 200 201 193 201 214 203 206 219 217 238 231 241 224 219 237 226 248
264 271 305 338 245 190 237 186 176 200 213 240 211 204 213 196 209 190 184 207 226 213 221 220 230 229 235 255 258 239 258 253
240 191 281 162 43 28 239 231 192 185 206 220 232 215 209 215 209 201 200 199 221 202 230 227 228 235 229 233 232 236 240 245
234 193 138 6 10 23 81 152 241 184 192 214 218 229 225 216 221 206 187 209 210 223 220 227 203 223 214 225 227 253 253 242
224 188 155 119 86 23 37 329 189 213 171 197 238 224 230 235 219 210 203 207 209 214 214 223 200 225 226 207 233 250 247 271
235 274 253 137 82 31 65 26 4 175 156 207 209 223 229 237 239 223 208 209 208 204 211 199 193 218 233 221 188 212 234 242
231 226 231 252 319 71 71 48 337 269 201 205 210 202 204 231 238 248 220 230 211 201 222 190 195 208 232 218 213 200 210 237
230 232 208 228 213 190 159 200 187 243 294 239 200 236 276 239 246 239 219 215 208 216 203 230 195 220 221 223 221 227 226 226
212 205 209 207 209 187 290 305 286 248 147 276 257 261 224 229 235 222 206 206 212 206 198 193 221 206 240 221 225 237 217 245
213 180 148 196 215 283 227 263 264 256 236 240 268 248 244 244 238 229 208 199 202 200 205 197 197 210 237 234 233 219 220 230
174 255 285 257 260 260 219 259 265 295 279 261 244 257 270 277 277 274 207 204 212 205 215 214 203 219 223 227 232 222 216 222
197 249 283 310 281 277 283 281 287 264 278 284 274 262 253 261 255 263 272 256 206 197 198 214 208 215 223 225 222 218 214 223
225 267 276 300 308 314 293 285 292 308 298 277 281 273 269 262 253 248 264 257 274 262 189 204 213 213 210 223 210 226 216 205
268 280 285 288 293 294 291 283 288 284 288 286 271 272 267 274 291 294 267 244 263 276 208 200 212 220 219 206 222 207 221 201
266 266 268 282 288 284 267 270 281 281 283 285 284 281 265 256 256 263 271 277 270 250 258 220 225 222 222 203 205 209 203 207
296 287 281 268 274 274 273 270 257 265 273 275 281 285 277 265 257 256 257 254 255 255 237 232 224 221 213 204 209 206 199 205
306 300 300 298 292 284 279 278 277 264 265 269 271 278 280 268 258 253 255 254 242 233 237 227 224 216 206 204 204 209 195 204